period_start,C,m1,H,J0,J1,J2,J3,J4,J5,JA,JB,JC,JD,JJ,JK,JN,#
2015-10-22 00:01:59,0.01,2.39,0.00,20.48,26.20,30.04,14.82,48.66,1017.59,2037.98,2732.90,2631.00,2850.49,600.51,602.14,36.61,0000 0000 0000 0000 000000
2015-10-22 00:07:00,0.02,2.39,0.00,20.47,26.20,30.04,14.81,48.63,1017.57,2037.99,2732.12,2630.92,2850.01,600.10,602.01,36.66,0000 0000 0000 0000 000000
2015-10-22 00:12:02,0.03,2.39,0.00,20.47,26.19,29.99,14.69,48.38,1017.55,2037.99,2731.96,2630.17,2849.94,599.80,601.49,36.71,0000 0000 0000 0000 000000
2015-10-22 00:17:03,0.03,2.40,0.00,20.47,26.18,29.94,14.86,48.55,1017.52,2037.99,2731.19,2630.00,2849.16,600.35,602.00,36.76,0000 0000 0000 0000 000000
2015-10-22 00:22:04,0.01,2.40,0.00,20.47,26.17,30.01,14.83,48.68,1017.47,2037.99,2730.96,2629.87,2849.00,600.11,601.82,36.81,0000 0000 0000 0000 000000
2015-10-22 00:27:05,0.04,2.40,0.00,20.47,26.17,29.98,14.78,48.66,1017.50,2037.99,2730.21,2629.24,2848.89,599.83,601.39,36.86,0000 0000 0000 0000 000000
2015-10-22 00:32:06,0.02,2.40,0.00,20.47,26.17,29.92,14.73,48.65,1017.59,2037.99,2729.98,2629.01,2848.15,600.10,601.85,36.91,0000 0000 0000 0000 000000
2015-10-22 00:37:07,0.02,2.40,0.00,20.47,26.17,30.02,14.79,48.67,1017.59,2037.99,2729.33,2628.84,2847.99,599.95,601.67,36.96,0000 0000 0000 0000 000000
2015-10-22 00:42:09,0.03,2.40,0.00,20.47,26.17,29.98,14.79,48.67,1017.60,2037.99,2728.99,2628.19,2847.68,599.95,601.64,37.01,0000 0000 0000 0000 000000
2015-10-22 00:47:10,0.02,2.41,0.00,20.48,26.17,29.93,14.77,48.67,1017.60,2037.99,2728.57,2628.00,2847.04,600.21,602.01,37.06,0000 0000 0000 0000 000000
2015-10-22 00:52:12,0.00,2.41,0.00,20.51,26.17,29.94,14.81,48.69,1017.59,2037.99,2728.04,2627.95,2846.99,599.88,601.55,37.12,0000 0000 0000 0000 000000
2015-10-22 00:57:13,0.05,2.41,0.00,20.52,26.20,29.94,14.81,48.63,1017.59,2037.99,2727.91,2627.19,2846.38,600.30,601.93,37.17,0000 0000 0000 0000 000000
2015-10-22 01:02:15,0.02,2.41,0.00,20.54,26.20,29.96,14.75,48.76,1017.59,2037.99,2727.12,2627.00,2846.02,600.04,601.69,37.22,0000 0000 0000 0000 000000
2015-10-22 01:07:16,0.02,2.41,0.00,20.54,26.20,29.98,14.82,48.74,1017.59,2037.99,2726.80,2626.83,2845.84,599.96,601.71,37.27,0000 0000 0000 0000 000000
2015-10-22 01:12:17,0.05,2.41,0.00,20.56,26.22,29.93,14.75,48.81,1017.59,2037.99,2726.08,2626.11,2845.10,600.21,601.78,37.32,0000 0000 0000 0000 000000
2015-10-22 01:17:18,0.00,2.41,0.00,20.57,26.22,29.87,14.78,48.74,1017.59,2037.99,2725.94,2626.00,2844.99,599.76,601.36,37.37,0000 0000 0000 0000 000000
2015-10-22 01:22:19,0.04,2.41,0.00,20.58,26.22,29.93,14.77,48.81,1017.41,2037.98,2725.15,2625.72,2844.60,599.72,601.37,37.42,0000 0000 0000 0000 000000
2015-10-22 01:27:20,0.02,2.42,0.00,20.58,26.22,29.97,14.75,48.81,1017.21,2037.97,2724.88,2625.04,2844.01,599.91,601.17,37.47,0000 0000 0000 0000 000000
2015-10-22 01:32:22,0.02,2.42,0.00,20.59,26.24,29.95,14.72,48.90,1017.47,2037.96,2724.11,2624.98,2843.89,599.94,601.37,37.52,0000 0000 0000 0000 000000
2015-10-22 01:37:23,0.04,2.42,0.00,20.59,26.25,29.93,14.82,48.77,1017.59,2037.97,2723.92,2624.39,2843.12,599.94,601.47,37.57,0000 0000 0000 0000 000000
2015-10-22 01:42:24,0.02,2.42,0.00,20.59,26.25,29.94,14.69,48.77,1017.59,2037.94,2723.19,2624.00,2842.99,599.62,601.13,37.62,0000 0000 0000 0000 000000
2015-10-22 01:47:26,0.02,2.42,0.00,20.58,26.25,29.95,14.76,48.78,1017.60,2037.95,2722.96,2623.96,2842.68,599.72,601.32,37.67,0000 0000 0000 0000 000000
2015-10-22 01:52:27,0.05,2.43,0.00,20.59,26.25,29.94,14.82,48.73,1017.59,2037.95,2722.28,2623.32,2842.04,600.26,601.75,37.72,0000 0000 0000 0000 000000
2015-10-22 01:57:28,0.00,2.43,0.00,20.59,26.25,29.93,14.78,48.79,1017.56,2037.92,2722.00,2623.01,2842.00,600.05,601.43,37.77,0000 0000 0000 0000 000000
2015-10-22 02:02:29,0.02,2.43,0.00,20.59,26.25,29.97,14.75,48.97,1017.28,2037.93,2721.67,2623.00,2841.66,599.97,601.20,37.82,0000 0000 0000 0000 000000
2015-10-22 02:07:31,0.03,2.43,0.00,20.59,26.26,29.99,14.84,48.94,1017.28,2037.90,2721.00,2622.67,2841.03,600.25,601.50,37.87,0000 0000 0000 0000 000000
2015-10-22 02:12:32,0.04,2.43,0.00,20.59,26.27,30.02,14.70,49.12,1017.14,2037.92,2720.24,2622.03,2840.55,599.45,600.68,37.92,0000 0000 0000 0000 000000
2015-10-22 02:17:33,0.08,2.43,0.00,20.59,26.27,30.01,14.77,49.09,1017.13,2037.91,2719.50,2621.26,2839.46,599.93,601.24,37.97,0000 0000 0000 0000 000000
2015-10-22 02:22:34,0.03,2.44,0.00,20.58,26.27,29.99,14.78,49.10,1017.12,2037.95,2718.88,2620.69,2839.00,599.99,601.26,38.03,0000 0000 0000 0000 000000
2015-10-22 02:27:36,0.05,2.44,0.00,20.57,26.27,30.02,14.85,49.13,1017.11,2037.95,2718.08,2620.03,2838.30,600.04,601.38,38.08,0000 0000 0000 0000 000000
2015-10-22 02:32:37,0.05,2.44,0.00,20.55,26.27,30.01,14.81,49.08,1017.14,2037.95,2717.58,2619.46,2837.92,600.24,601.56,38.13,0000 0000 0000 0000 000000
2015-10-22 02:37:39,0.03,2.44,0.00,20.54,26.26,29.98,14.80,48.96,1017.39,2037.96,2716.95,2618.89,2837.13,599.96,601.44,38.18,0000 0000 0000 0000 000000
2015-10-22 02:42:40,0.06,2.45,0.00,20.54,26.25,30.00,14.87,49.02,1017.57,2037.96,2716.15,2618.13,2836.43,600.09,601.83,38.23,0000 0000 0000 0000 000000
2015-10-22 02:47:41,0.02,2.45,0.00,20.54,26.25,30.04,14.79,48.71,1017.68,2037.97,2715.73,2617.86,2835.98,599.85,601.53,38.28,0000 0000 0000 0000 000000
2015-10-22 02:52:42,0.05,2.45,0.00,20.54,26.25,30.02,14.74,48.83,1017.88,2037.98,2715.04,2617.17,2835.45,599.83,601.59,38.33,0000 0000 0000 0000 000000
2015-10-22 02:57:44,0.02,2.45,0.00,20.56,26.25,29.95,14.76,48.90,1017.62,2037.97,2714.49,2616.98,2835.00,600.00,601.57,38.38,0000 0000 0000 0000 000000
2015-10-22 03:02:45,0.03,2.45,0.00,20.58,26.25,29.99,14.74,48.77,1017.61,2037.96,2714.01,2616.45,2834.74,599.85,601.34,38.43,0000 0000 0000 0000 000000
2015-10-22 03:07:46,0.03,2.46,0.00,20.61,26.25,30.04,14.74,48.83,1017.80,2037.98,2713.53,2616.03,2834.06,599.98,601.58,38.48,0000 0000 0000 0000 000000
2015-10-22 03:12:47,0.01,2.46,0.00,20.63,26.25,29.97,14.83,48.69,1018.07,2037.98,2713.00,2615.97,2833.98,600.20,601.93,38.53,0000 0000 0000 0000 000000
2015-10-22 03:17:49,0.06,2.46,0.00,20.66,26.25,29.95,14.75,48.78,1018.09,2037.97,2712.54,2615.40,2833.34,599.92,601.66,38.58,0000 0000 0000 0000 000000
2015-10-22 03:22:49,0.01,2.46,0.00,20.69,26.24,29.89,14.73,48.81,1018.09,2037.96,2712.01,2615.01,2833.00,599.75,601.23,38.63,0000 0000 0000 0000 000000
2015-10-22 03:27:51,0.02,2.46,0.00,20.73,26.24,29.98,14.71,48.83,1018.08,2037.96,2711.66,2614.95,2832.81,599.63,601.18,38.68,0000 0000 0000 0000 000000
2015-10-22 03:32:52,0.05,2.46,0.00,20.75,26.25,29.93,14.78,48.91,1018.08,2037.97,2711.02,2614.25,2832.09,599.87,601.38,38.73,0000 0000 0000 0000 000000
2015-10-22 03:37:54,0.01,2.46,0.00,20.77,26.25,29.91,14.76,48.92,1018.08,2037.98,2710.79,2614.01,2832.00,600.17,601.60,38.78,0000 0000 0000 0000 000000
2015-10-22 03:42:55,0.03,2.47,0.00,20.79,26.25,29.84,14.70,48.84,1018.09,2037.98,2710.06,2613.96,2831.57,600.06,601.44,38.84,0000 0000 0000 0000 000000
2015-10-22 03:47:56,0.03,2.47,0.00,20.82,26.25,29.89,14.74,48.69,1018.12,2037.98,2709.92,2613.23,2831.02,599.79,601.21,38.89,0000 0000 0000 0000 000000
2015-10-22 03:52:57,0.02,2.47,0.00,20.83,26.25,29.78,14.71,48.86,1018.35,2037.98,2709.14,2613.00,2830.94,599.83,601.36,38.94,0000 0000 0000 0000 000000
2015-10-22 03:57:59,0.02,2.47,0.00,20.85,26.26,29.76,14.78,48.86,1018.30,2037.98,2708.96,2612.91,2830.31,600.09,601.41,38.99,0000 0000 0000 0000 000000
2015-10-22 04:03:00,0.04,2.47,0.00,20.87,26.27,29.77,14.75,48.84,1018.27,2037.97,2708.32,2612.25,2830.00,599.84,601.30,39.04,0000 0000 0000 0000 000000
2015-10-22 04:08:01,0.00,2.47,0.00,20.88,26.27,29.78,14.75,48.94,1018.33,2037.97,2708.00,2612.00,2829.94,599.84,601.24,39.09,0000 0000 0000 0000 000000
2015-10-22 04:13:03,0.02,2.47,0.00,20.89,26.28,29.81,14.78,48.91,1018.12,2037.96,2707.86,2611.98,2829.23,599.91,601.05,39.14,0000 0000 0000 0000 000000
2015-10-22 04:18:04,0.03,2.48,0.00,20.90,26.30,29.83,14.84,48.82,1018.13,2037.97,2707.15,2611.63,2829.01,600.02,601.15,39.19,0000 0000 0000 0000 000000
2015-10-22 04:23:05,-0.00,2.48,0.00,20.92,26.30,29.84,14.74,48.70,1018.39,2037.87,2706.98,2611.04,2828.93,599.94,601.33,39.24,0000 0000 0000 0000 000000
2015-10-22 04:28:07,0.01,2.48,0.00,20.92,26.32,29.82,14.73,48.78,1018.40,2037.60,2706.37,2610.99,2828.28,599.81,601.12,39.29,0000 0000 0000 0000 000000
2015-10-22 04:33:08,0.01,2.48,0.00,20.93,26.32,29.89,14.72,48.77,1018.44,2037.32,2706.00,2610.69,2828.00,599.75,601.07,39.34,0000 0000 0000 0000 000000
2015-10-22 04:38:09,0.02,2.48,0.00,20.94,26.33,29.91,14.67,48.57,1018.57,2037.37,2705.75,2610.08,2827.91,599.62,600.91,39.39,0000 0000 0000 0000 000000
2015-10-22 04:43:10,0.01,2.48,0.00,20.95,26.35,29.90,14.64,48.71,1018.57,2037.12,2705.06,2610.00,2827.15,599.52,600.76,39.44,0000 0000 0000 0000 000000
2015-10-22 04:48:11,-0.00,2.48,0.00,20.96,26.35,29.89,14.72,48.71,1018.57,2037.08,2705.00,2609.94,2827.01,599.95,601.27,39.49,0000 0000 0000 0000 000000
2015-10-22 04:53:13,0.04,2.48,0.00,20.97,26.36,29.93,14.72,48.58,1018.57,2037.07,2704.61,2609.30,2826.95,599.97,601.30,39.54,0000 0000 0000 0000 000000
2015-10-22 04:58:14,0.02,2.48,0.00,20.98,26.37,29.90,14.72,48.66,1018.57,2037.06,2704.03,2609.02,2826.35,600.05,601.29,39.59,0000 0000 0000 0000 000000
2015-10-22 05:03:15,0.00,2.48,0.00,20.99,26.38,29.91,14.70,48.66,1018.58,2037.02,2703.96,2608.99,2826.01,599.69,601.07,39.64,0000 0000 0000 0000 000000
2015-10-22 05:08:16,0.04,2.48,0.00,21.00,26.40,29.94,14.77,48.59,1018.58,2037.01,2703.23,2608.55,2825.95,600.17,601.42,39.69,0000 0000 0000 0000 000000
2015-10-22 05:13:18,0.02,2.49,0.00,21.02,26.40,29.96,14.75,48.68,1018.58,2037.00,2703.00,2608.05,2825.29,600.24,601.39,39.74,0000 0000 0000 0000 000000
2015-10-22 05:18:19,0.01,2.49,0.00,21.02,26.42,29.93,14.69,48.61,1018.66,2037.00,2702.75,2608.00,2825.01,599.64,601.01,39.80,0000 0000 0000 0000 000000
2015-10-22 05:23:20,0.02,2.49,0.00,21.02,26.42,29.97,14.73,48.65,1018.76,2037.00,2702.04,2607.78,2824.94,600.11,601.42,39.85,0000 0000 0000 0000 000000
2015-10-22 05:28:21,0.03,2.49,0.00,21.03,26.44,29.97,14.73,48.58,1018.87,2037.00,2702.00,2607.14,2824.34,599.94,601.27,39.90,0000 0000 0000 0000 000000
2015-10-22 05:33:23,0.01,2.49,0.00,21.03,26.45,29.96,14.76,48.58,1019.00,2037.00,2701.60,2607.00,2824.01,600.07,601.50,39.95,0000 0000 0000 0000 000000
2015-10-22 05:38:24,0.01,2.49,0.00,21.06,26.46,30.00,14.79,48.74,1019.01,2037.00,2701.03,2606.98,2823.96,600.08,601.59,40.00,0000 0000 0000 0000 000000
2015-10-22 05:43:25,0.03,2.49,0.00,21.08,26.47,29.96,14.70,48.83,1018.57,2036.99,2700.99,2606.62,2823.46,599.99,601.26,40.05,0000 0000 0000 0000 000000
2015-10-22 05:48:26,0.03,2.49,0.00,21.07,26.48,29.99,14.60,48.65,1018.56,2036.98,2700.52,2606.04,2823.01,599.72,600.77,40.10,0000 0000 0000 0000 000000
2015-10-22 05:53:28,0.00,2.50,0.00,21.07,26.50,30.00,14.71,48.65,1018.57,2036.97,2700.02,2606.00,2822.98,599.85,600.87,40.15,0000 0000 0000 0000 000000
2015-10-22 05:58:29,0.02,2.50,0.00,21.09,26.50,30.01,14.76,48.58,1018.59,2036.94,2699.99,2605.85,2822.51,600.24,601.25,40.20,0000 0000 0000 0000 000000
2015-10-22 06:03:31,0.03,2.50,0.00,21.12,26.52,30.01,14.70,48.57,1018.60,2036.89,2699.32,2605.19,2822.03,599.95,601.03,40.25,0000 0000 0000 0000 000000
2015-10-22 06:08:32,-0.01,2.50,0.00,21.14,26.52,30.02,14.70,48.65,1018.67,2036.82,2699.01,2605.00,2822.00,599.73,600.66,40.30,0000 0000 0000 0000 000000
2015-10-22 06:13:33,-0.01,2.50,0.00,21.18,26.53,30.01,14.74,48.57,1018.66,2036.49,2698.75,2604.96,2821.59,600.33,601.25,40.35,0000 0000 0000 0000 000000
2015-10-22 06:18:34,0.02,2.50,0.00,21.20,26.55,30.05,14.73,48.63,1018.58,2036.25,2698.08,2604.52,2821.04,599.90,600.70,40.40,0000 0000 0000 0000 000000
2015-10-22 06:23:36,-0.00,2.50,0.00,21.22,26.56,30.01,14.71,48.55,1018.58,2036.15,2698.00,2604.05,2821.00,599.97,600.84,40.45,0000 0000 0000 0000 000000
2015-10-22 06:28:38,0.01,2.50,0.00,21.24,26.57,30.06,14.78,48.52,1018.64,2036.03,2697.71,2604.00,2820.82,600.14,601.01,40.50,0000 0000 0000 0000 000000
2015-10-22 06:33:39,0.03,2.50,0.00,21.27,26.57,30.05,14.72,48.42,1018.99,2036.03,2697.06,2603.89,2820.08,599.99,600.99,40.55,0000 0000 0000 0000 000000
2015-10-22 06:38:40,0.02,2.50,0.00,21.33,26.59,30.01,14.72,48.42,1019.06,2036.02,2697.00,2603.32,2820.00,600.12,600.84,40.60,0000 0000 0000 0000 000000
2015-10-22 06:43:42,0.02,2.50,0.00,21.43,26.61,29.97,14.73,48.42,1019.05,2036.01,2696.68,2603.02,2819.79,600.20,600.78,40.65,0000 0000 0000 0000 000000
2015-10-22 06:48:43,0.03,2.50,0.00,21.53,26.63,29.96,14.76,48.42,1019.05,2036.00,2696.03,2602.87,2819.08,600.13,600.64,40.71,0000 0000 0000 0000 000000
2015-10-22 06:53:44,0.02,2.51,0.00,21.61,26.66,30.02,14.72,48.30,1019.07,2036.00,2695.91,2602.28,2818.99,599.92,600.23,40.76,0000 0000 0000 0000 000000
2015-10-22 06:58:45,0.03,2.51,0.00,21.65,26.69,30.03,14.72,48.34,1019.08,2035.99,2695.15,2602.00,2818.57,600.22,600.29,40.81,0000 0000 0000 0000 000000
2015-10-22 07:03:47,0.01,2.51,0.00,21.67,26.71,30.10,14.65,48.31,1019.06,2035.97,2694.99,2601.92,2818.01,600.13,600.39,40.86,0000 0000 0000 0000 000000
2015-10-22 07:08:48,0.03,2.51,0.00,21.67,26.74,30.12,14.76,48.35,1019.07,2035.82,2694.46,2601.18,2817.69,600.24,600.41,40.91,0000 0000 0000 0000 000000
2015-10-22 07:13:50,-0.02,2.51,0.00,21.69,26.77,30.19,14.67,48.17,1019.29,2035.40,2694.01,2600.99,2817.04,599.94,600.08,40.96,0000 0000 0000 0000 000000
2015-10-22 07:18:51,0.00,2.51,0.00,21.69,26.80,30.22,14.71,48.40,1019.54,2035.06,2693.72,2600.54,2816.92,599.86,600.32,41.01,0000 0000 0000 0000 000000
2015-10-22 07:23:52,0.03,2.51,0.00,21.70,26.82,30.20,14.66,48.23,1019.53,2035.01,2693.04,2600.02,2816.20,600.22,600.67,41.06,0000 0000 0000 0000 000000
2015-10-22 07:28:53,0.00,2.51,0.00,21.71,26.85,30.22,14.61,48.29,1019.53,2035.00,2692.97,2599.98,2816.00,599.67,600.02,41.11,0000 0000 0000 0000 000000
2015-10-22 07:33:55,0.03,2.51,0.00,21.68,26.87,30.22,14.68,48.32,1019.55,2035.00,2692.40,2599.68,2815.93,600.06,600.48,41.16,0000 0000 0000 0000 000000
2015-10-22 07:38:56,0.03,2.51,0.00,21.70,26.89,30.23,14.75,48.35,1019.55,2034.98,2692.00,2599.03,2815.22,600.38,600.78,41.21,0000 0000 0000 0000 000000
2015-10-22 07:43:57,0.00,2.51,0.00,21.72,26.91,30.29,14.70,48.34,1019.55,2034.94,2691.65,2599.00,2815.00,600.01,600.28,41.26,0000 0000 0000 0000 000000
2015-10-22 07:48:59,0.02,2.51,0.00,21.74,26.92,30.27,14.67,48.23,1019.58,2034.69,2691.05,2598.53,2814.82,599.76,600.08,41.31,0000 0000 0000 0000 000000
2015-10-22 07:54:00,-0.02,2.51,0.00,21.79,26.95,30.33,14.73,48.39,1019.56,2034.25,2690.94,2598.03,2814.10,599.94,600.25,41.36,0000 0000 0000 0000 000000
2015-10-22 07:59:01,0.01,2.51,0.00,21.81,26.97,30.36,14.71,48.33,1019.57,2034.12,2690.22,2598.00,2814.00,600.02,600.24,41.41,0000 0000 0000 0000 000000
2015-10-22 08:04:03,-0.00,2.51,0.00,21.82,26.99,30.35,14.69,48.23,1019.65,2034.04,2690.01,2597.74,2813.87,599.89,600.11,41.46,0000 0000 0000 0000 000000
2015-10-22 08:09:04,0.04,2.52,0.00,21.83,27.01,30.37,14.70,48.35,1019.72,2034.01,2689.87,2597.10,2813.22,599.94,600.13,41.51,0000 0000 0000 0000 000000
2015-10-22 08:14:05,0.01,2.52,0.00,21.84,27.03,30.40,14.71,48.40,1019.67,2034.00,2689.23,2597.00,2813.01,600.36,600.52,41.57,0000 0000 0000 0000 000000
2015-10-22 08:19:07,0.00,2.52,0.00,21.82,27.05,30.42,14.78,48.26,1019.99,2034.00,2689.00,2596.91,2812.93,600.09,600.51,41.62,0000 0000 0000 0000 000000
2015-10-22 08:24:08,0.04,2.52,0.00,21.82,27.07,30.44,14.78,48.38,1020.01,2034.00,2688.91,2596.32,2812.24,599.89,600.31,41.67,0000 0000 0000 0000 000000
2015-10-22 08:29:09,0.02,2.52,0.00,21.84,27.08,30.44,14.68,48.28,1020.00,2033.98,2688.30,2596.01,2812.01,600.01,600.46,41.72,0000 0000 0000 0000 000000
2015-10-22 08:34:10,0.00,2.52,0.00,21.82,27.10,30.43,14.76,48.41,1020.03,2033.98,2688.03,2596.00,2812.00,599.90,600.41,41.77,0000 0000 0000 0000 000000
2015-10-22 08:39:12,0.00,2.52,0.00,21.82,27.12,30.45,14.69,48.40,1020.03,2033.98,2687.99,2595.98,2811.87,599.98,600.42,41.82,0000 0000 0000 0000 000000
2015-10-22 08:44:13,0.03,2.52,0.00,21.79,27.12,30.44,14.73,48.32,1020.03,2033.93,2687.79,2595.63,2811.17,600.02,600.55,41.87,0000 0000 0000 0000 000000
2015-10-22 08:49:14,0.02,2.52,0.00,21.79,27.14,30.43,14.67,48.28,1020.03,2033.78,2687.06,2595.06,2811.01,600.02,600.51,41.92,0000 0000 0000 0000 000000
2015-10-22 08:54:15,-0.01,2.52,0.00,21.77,27.15,30.47,14.71,48.33,1020.03,2033.58,2687.00,2595.00,2810.98,599.76,600.29,41.97,0000 0000 0000 0000 000000
2015-10-22 08:59:16,-0.01,2.52,0.00,21.77,27.16,30.46,14.72,48.31,1020.04,2033.46,2686.97,2594.97,2810.49,600.27,600.81,42.02,0000 0000 0000 0000 000000
2015-10-22 09:04:17,0.01,2.52,0.00,21.73,27.17,30.47,14.73,48.30,1020.05,2033.22,2686.37,2594.68,2810.04,600.08,600.63,42.07,0000 0000 0000 0000 000000
2015-10-22 09:09:19,0.01,2.53,0.00,21.70,27.17,30.49,14.72,48.49,1020.07,2033.13,2686.01,2594.13,2810.00,600.08,600.80,42.12,0000 0000 0000 0000 000000
2015-10-22 09:14:19,0.00,2.53,0.00,21.69,27.17,30.50,14.74,48.34,1020.20,2033.09,2685.99,2594.01,2809.99,600.18,600.93,42.17,0000 0000 0000 0000 000000
2015-10-22 09:19:21,0.01,2.53,0.00,21.69,27.17,30.49,14.72,48.34,1020.32,2033.04,2685.81,2594.00,2809.72,600.01,600.98,42.22,0000 0000 0000 0000 000000
2015-10-22 09:24:22,0.02,2.53,0.00,21.68,27.17,30.50,14.71,48.32,1020.41,2033.02,2685.17,2593.93,2809.11,599.94,600.88,42.27,0000 0000 0000 0000 000000
2015-10-22 09:29:23,0.02,2.53,0.00,21.67,27.18,30.47,14.73,48.33,1020.41,2033.03,2685.00,2593.56,2809.01,600.16,601.01,42.32,0000 0000 0000 0000 000000
2015-10-22 09:34:24,0.01,2.53,0.00,21.65,27.19,30.50,14.73,48.34,1020.45,2033.00,2684.99,2593.11,2809.00,599.77,600.75,42.37,0000 0000 0000 0000 000000
2015-10-22 09:39:25,0.01,2.53,0.00,21.64,27.19,30.49,14.73,48.33,1020.50,2033.01,2684.78,2593.00,2808.96,600.05,601.08,42.42,0000 0000 0000 0000 000000
2015-10-22 09:44:27,0.01,2.53,0.00,21.63,27.19,30.50,14.71,48.36,1020.52,2033.02,2684.38,2593.00,2808.83,600.06,601.05,42.47,0000 0000 0000 0000 000000
2015-10-22 09:49:29,0.02,2.53,0.00,21.64,27.19,30.48,14.69,48.27,1020.52,2033.01,2684.10,2592.99,2808.16,599.96,601.06,42.53,0000 0000 0000 0000 000000
2015-10-22 09:54:30,0.00,2.53,0.00,21.64,27.19,30.47,14.76,48.40,1020.51,2033.00,2684.01,2592.96,2808.02,600.03,601.22,42.58,0000 0000 0000 0000 000000
2015-10-22 09:59:31,0.01,2.53,0.00,21.62,27.19,30.48,14.80,48.43,1020.52,2033.00,2683.99,2592.66,2808.00,600.38,601.56,42.63,0000 0000 0000 0000 000000
2015-10-22 10:04:33,0.03,2.53,0.00,21.58,27.19,30.52,14.78,48.38,1020.52,2033.00,2683.54,2592.09,2807.98,600.04,601.24,42.68,0000 0000 0000 0000 000000
2015-10-22 10:09:34,0.01,2.53,0.00,21.55,27.17,30.54,14.79,48.41,1020.52,2033.00,2683.03,2592.01,2807.95,600.18,601.49,42.73,0000 0000 0000 0000 000000
2015-10-22 10:14:35,0.00,2.53,0.00,21.53,27.17,30.56,14.76,48.39,1020.53,2033.00,2683.00,2592.00,2807.71,600.19,601.52,42.78,0000 0000 0000 0000 000000
2015-10-22 10:19:37,0.00,2.53,0.00,21.52,27.17,30.55,14.78,48.42,1020.53,2033.03,2683.00,2592.00,2807.36,600.05,601.43,42.83,0000 0000 0000 0000 000000
2015-10-22 10:24:38,0.00,2.54,0.00,21.51,27.17,30.54,14.77,48.24,1020.54,2033.01,2682.96,2591.97,2807.03,599.96,601.33,42.88,0000 0000 0000 0000 000000
2015-10-22 10:29:39,0.01,2.54,0.00,21.52,27.17,30.52,14.75,48.35,1020.53,2033.01,2682.68,2591.92,2807.00,599.76,601.09,42.93,0000 0000 0000 0000 000000
2015-10-22 10:34:41,0.01,2.54,0.00,21.52,27.17,30.49,14.73,48.31,1020.52,2033.00,2682.56,2591.62,2806.97,600.30,601.58,42.98,0000 0000 0000 0000 000000
2015-10-22 10:39:42,0.03,2.54,0.00,21.52,27.15,30.48,14.82,48.30,1020.53,2033.00,2682.14,2591.18,2806.93,600.28,601.67,43.03,0000 0000 0000 0000 000000
2015-10-22 10:44:43,0.01,2.54,0.00,21.52,27.15,30.47,14.75,48.33,1020.54,2033.01,2682.00,2591.03,2806.61,599.61,601.09,43.08,0000 0000 0000 0000 000000
2015-10-22 10:49:44,0.00,2.54,0.00,21.52,27.15,30.48,14.70,48.14,1020.53,2033.01,2682.00,2591.00,2806.07,599.91,601.18,43.13,0000 0000 0000 0000 000000
2015-10-22 10:54:46,0.00,2.54,0.00,21.52,27.15,30.47,14.75,48.22,1020.53,2033.00,2681.95,2591.00,2806.01,600.05,601.37,43.18,0000 0000 0000 0000 000000
2015-10-22 10:59:47,-0.00,2.54,0.00,21.52,27.15,30.44,14.75,48.20,1020.54,2033.01,2681.96,2590.99,2806.00,600.42,601.76,43.23,0000 0000 0000 0000 000000
2015-10-22 11:04:49,0.01,2.54,0.00,21.50,27.15,30.45,14.73,48.25,1020.54,2033.00,2681.60,2590.99,2806.00,599.77,601.03,43.28,0000 0000 0000 0000 000000
2015-10-22 11:09:50,0.01,2.54,0.00,21.48,27.14,30.47,14.74,48.20,1020.55,2033.01,2681.05,2590.95,2805.99,600.13,601.63,43.33,0000 0000 0000 0000 000000
2015-10-22 11:14:51,0.00,2.54,0.00,21.46,27.12,30.51,14.71,48.13,1020.56,2033.01,2681.00,2590.81,2805.98,600.46,601.96,43.39,0000 0000 0000 0000 000000
2015-10-22 11:19:52,0.01,2.54,0.00,21.44,27.12,30.52,14.76,48.36,1020.58,2033.03,2681.00,2590.70,2805.93,599.91,601.50,43.44,0000 0000 0000 0000 000000
2015-10-22 11:24:53,0.01,2.54,0.00,21.44,27.12,30.50,14.73,48.34,1020.61,2033.04,2681.00,2590.39,2805.83,600.33,601.89,43.49,0000 0000 0000 0000 000000
2015-10-22 11:29:55,0.02,2.54,0.00,21.42,27.10,30.50,14.82,48.33,1020.61,2033.03,2680.84,2590.03,2805.21,600.31,601.89,43.54,0000 0000 0000 0000 000000
2015-10-22 11:34:56,0.00,2.54,0.00,21.41,27.10,30.56,14.79,48.37,1020.55,2033.06,2680.84,2590.02,2805.06,600.01,601.58,43.59,0000 0000 0000 0000 000000
2015-10-22 11:39:57,0.01,2.54,0.00,21.40,27.10,30.55,14.76,48.28,1020.54,2033.05,2680.60,2590.01,2805.01,600.03,601.64,43.64,0000 0000 0000 0000 000000
2015-10-22 11:44:59,0.01,2.54,0.00,21.40,27.07,30.51,14.70,48.28,1020.54,2033.07,2680.23,2590.00,2805.00,599.95,601.47,43.69,0000 0000 0000 0000 000000
2015-10-22 11:49:59,0.01,2.54,0.00,21.39,27.07,30.51,14.81,48.33,1020.55,2033.13,2680.01,2590.00,2805.00,600.36,602.00,43.74,0000 0000 0000 0000 000000
2015-10-22 11:55:01,0.01,2.54,0.00,21.37,27.06,30.49,14.81,48.17,1020.53,2033.21,2680.00,2590.00,2805.00,600.08,601.72,43.79,0000 0000 0000 0000 000000
2015-10-22 12:00:02,0.02,2.55,0.00,21.37,27.05,30.48,14.76,48.23,1020.53,2033.51,2680.00,2590.00,2805.00,600.22,601.83,43.84,0000 0000 0000 0000 000000
2015-10-22 12:05:03,0.00,2.55,0.00,21.36,27.04,30.47,14.79,48.28,1020.52,2033.55,2679.97,2589.99,2805.00,599.84,601.52,43.89,0000 0000 0000 0000 000000
2015-10-22 12:10:04,0.03,2.55,0.00,21.35,27.02,30.46,14.71,48.37,1020.52,2033.71,2679.56,2589.98,2805.00,600.01,601.65,43.94,0000 0000 0000 0000 000000
2015-10-22 12:15:06,0.01,2.55,0.00,21.35,27.02,30.44,14.76,48.33,1020.52,2033.83,2679.08,2589.91,2804.97,599.98,601.59,43.99,0000 0000 0000 0000 000000
2015-10-22 12:20:07,0.02,2.55,0.00,21.32,27.02,30.48,14.80,48.38,1020.52,2033.82,2679.01,2589.57,2804.87,599.82,601.62,44.04,0000 0000 0000 0000 000000
2015-10-22 12:25:08,0.01,2.55,0.00,21.28,27.00,30.52,14.79,48.41,1020.53,2033.91,2679.00,2589.37,2804.80,600.00,601.84,44.09,0000 0000 0000 0000 000000
2015-10-22 12:30:10,0.01,2.55,0.00,21.26,27.00,30.68,14.79,48.40,1020.53,2033.94,2679.00,2589.20,2804.43,600.06,601.87,44.14,0000 0000 0000 0000 000000
2015-10-22 12:35:11,-0.01,2.55,0.00,21.23,26.99,30.77,14.90,48.42,1020.53,2033.97,2678.98,2589.23,2804.63,600.16,602.04,44.19,0000 0000 0000 0000 000000
2015-10-22 12:40:12,0.02,2.55,0.00,21.20,26.97,30.82,14.81,48.47,1020.52,2033.99,2678.98,2589.08,2804.18,599.79,601.82,44.24,0000 0000 0000 0000 000000
2015-10-22 12:45:13,0.00,2.55,0.00,21.18,26.96,30.84,14.75,48.45,1020.52,2033.99,2678.91,2589.02,2804.08,599.84,601.95,44.29,0000 0000 0000 0000 000000
2015-10-22 12:50:14,0.00,2.55,0.00,21.16,26.95,30.84,14.76,48.54,1020.52,2033.99,2678.67,2589.03,2804.08,599.92,602.06,44.34,0000 0000 0000 0000 000000
2015-10-22 12:55:15,0.00,2.55,0.00,21.14,26.93,30.81,14.78,48.54,1020.52,2033.99,2678.43,2589.04,2804.11,599.81,602.01,44.39,0000 0000 0000 0000 000000